Weather History for Red Oak, IA

Change the Weather History Date:

Sunday, December 25, 2011

  Actual Average Record
Temperature  
Mean Temperature 34 °F -  
Max Temperature 48 °F 32 °F 53 °F (1954)
Min Temperature 21 °F 12 °F -16 °F (1948)
Degree Days  
Heating Degree Days 30    
Moisture  
Dew Point 21 °F    
Average Humidity 63    
Maximum Humidity 86    
Minimum Humidity 32    
Precipitation  
Precipitation 0.00 in - - ()
Sea Level Pressure  
Sea Level Pressure 30.35 in    
Wind  
Wind Speed 3 mph (WNW)    
Max Wind Speed 12 mph    
Max Gust Speed -    
Visibility 10 miles    
Events      
Averages and records for this station are not official NWS values.
T = Trace of Precipitation, MM = Missing Value Source: NWS Daily Summary

Daily Weather History Graph

Daily Weather History Graph

Search for Another Location

Airport:

Trip Planner

Search our weather history database for the weather conditions in past years. The results will help you decide how hot, cold, wet, or windy it might be!

Date:

Astronomy

Dec. 25, 2011 Rise Set
Actual Time 7:44 AM CST 4:58 PM CST
Civil Twilight 7:13 AM CST 5:29 PM CST
Nautical Twilight 6:38 AM CST 6:03 PM CST
Astronomical Twilight 6:04 AM CST 6:37 PM CST
Moon 8:22 AM CST 6:20 PM CST
Length of Visible Light 10h 16m
Length of Day
9h 13m
New Moon, 1% of the Moon is Illuminated
Dec 25
New Moon
Jan 1
First Quarter
Jan 9
Full
Jan 16
Last Quarter
Jan 23
New

Hourly Weather History & Observations

Time (CST) Temp. Windchill Dew Point Humidity Pressure Visibility Wind Dir Wind Speed Gust Speed Precip Events Conditions
12:15 AM 26.6 °F - 21.2 °F 80% 30.27 in 10.0 mi Calm Calm - N/A   Clear
12:35 AM 26.6 °F - 21.2 °F 80% 30.28 in 10.0 mi Calm Calm - N/A   Clear
12:55 AM 26.6 °F 21.2 °F 19.4 °F 74% 30.28 in 10.0 mi SSW 4.6 mph - N/A   Clear
1:15 AM 26.6 °F 22.6 °F 19.4 °F 74% 30.27 in 10.0 mi SSW 3.5 mph - N/A   Clear
1:35 AM 26.6 °F 22.6 °F 19.4 °F 74% 30.28 in 10.0 mi SSW 3.5 mph - N/A   Clear
1:55 AM 23.0 °F 18.4 °F 17.6 °F 80% 30.27 in 10.0 mi South 3.5 mph - N/A   Clear
2:15 AM 24.8 °F - 19.4 °F 80% 30.28 in 10.0 mi Calm Calm - N/A   Clear
2:35 AM 26.6 °F 21.2 °F 19.4 °F 74% 30.28 in 10.0 mi WNW 4.6 mph - N/A   Clear
2:55 AM 26.6 °F 18.2 °F 21.2 °F 80% 30.28 in 10.0 mi West 8.1 mph - N/A   Clear
3:15 AM 28.4 °F 19.7 °F 21.2 °F 74% 30.28 in 10.0 mi West 9.2 mph - N/A   Clear
3:35 AM 28.4 °F 19.7 °F 21.2 °F 74% 30.28 in 10.0 mi West 9.2 mph - N/A   Clear
3:55 AM 28.4 °F 20.4 °F 21.2 °F 74% 30.28 in 10.0 mi West 8.1 mph - N/A   Clear
4:15 AM 28.4 °F 21.2 °F 21.2 °F 74% 30.28 in 10.0 mi West 6.9 mph - N/A   Clear
4:35 AM 28.4 °F 23.3 °F 21.2 °F 74% 30.28 in 10.0 mi West 4.6 mph - N/A   Clear
4:55 AM 28.4 °F - 21.2 °F 74% 30.28 in 10.0 mi Calm Calm - N/A   Clear
5:15 AM 26.6 °F - 19.4 °F 74% 30.29 in 10.0 mi Calm Calm - N/A   Clear
5:35 AM 28.4 °F - 19.4 °F 69% 30.29 in 10.0 mi Calm Calm - N/A   Clear
5:55 AM 26.6 °F - 17.6 °F 69% 30.30 in 10.0 mi Calm Calm - N/A   Clear
6:15 AM 26.6 °F - 19.4 °F 74% 30.31 in 10.0 mi Calm Calm - N/A   Clear
6:35 AM 26.6 °F - 19.4 °F 74% 30.31 in 10.0 mi Calm Calm - N/A   Clear
6:55 AM 26.6 °F - 19.4 °F 74% 30.31 in 10.0 mi Calm Calm - N/A   Clear
7:15 AM 28.4 °F - 19.4 °F 69% 30.34 in 10.0 mi Calm Calm - N/A   Clear
7:35 AM 24.8 °F - 17.6 °F 74% 30.35 in 10.0 mi Calm Calm - N/A   Clear
7:55 AM 24.8 °F - 17.6 °F 74% 30.36 in 10.0 mi Calm Calm - N/A   Clear
8:15 AM 26.6 °F - 19.4 °F 74% 30.37 in 10.0 mi Calm Calm - N/A   Clear
8:35 AM 28.4 °F - 21.2 °F 74% 30.38 in 10.0 mi Calm Calm - N/A   Clear
8:55 AM 28.4 °F - 21.2 °F 74% 30.39 in 10.0 mi Calm Calm - N/A   Clear
9:15 AM 32.0 °F 28.7 °F 23.0 °F 69% 30.39 in 10.0 mi West 3.5 mph - N/A   Clear
9:35 AM 33.8 °F - 24.8 °F 70% 30.40 in 10.0 mi Calm Calm - N/A   Clear
9:55 AM 37.4 °F - 24.8 °F 60% 30.41 in 10.0 mi Calm Calm - N/A   Clear
10:15 AM 39.2 °F 35.0 °F 24.8 °F 56% 30.42 in 10.0 mi NW 5.8 mph - N/A   Clear
10:35 AM 41.0 °F 36.4 °F 24.8 °F 53% 30.42 in 10.0 mi NNW 6.9 mph - N/A   Clear
10:55 AM 42.8 °F 38.6 °F 24.8 °F 49% 30.43 in 10.0 mi NW 6.9 mph - N/A   Clear
11:15 AM 44.6 °F 40.7 °F 24.8 °F 46% 30.43 in 10.0 mi NNW 6.9 mph - N/A   Clear
11:35 AM 46.4 °F 41.1 °F 23.0 °F 40% 30.42 in 10.0 mi North 11.5 mph - N/A   Clear
11:55 AM 46.4 °F 41.9 °F 23.0 °F 40% 30.41 in 10.0 mi NNW 9.2 mph - N/A   Clear
12:15 PM 46.4 °F 42.4 °F 23.0 °F 40% 30.40 in 10.0 mi NW 8.1 mph - N/A   Clear
12:35 PM 46.4 °F 43.5 °F 21.2 °F 37% 30.39 in 10.0 mi NNW 5.8 mph - N/A   Clear
12:55 PM 48.2 °F - 21.2 °F 34% 30.38 in 10.0 mi WNW 6.9 mph - N/A   Clear
1:15 PM 48.2 °F - 21.2 °F 34% 30.38 in 10.0 mi NNW 5.8 mph - N/A   Clear
1:35 PM 48.2 °F - 21.2 °F 34% 30.38 in 10.0 mi NW 6.9 mph - N/A   Clear
1:55 PM 48.2 °F - 19.4 °F 32% 30.38 in 10.0 mi West 8.1 mph - N/A   Clear
2:15 PM 48.2 °F - 19.4 °F 32% 30.38 in 10.0 mi WNW 5.8 mph - N/A   Clear
2:35 PM 48.2 °F - 19.4 °F 32% 30.38 in 10.0 mi NW 4.6 mph - N/A   Clear
2:55 PM 48.2 °F - 19.4 °F 32% 30.38 in 10.0 mi WNW 9.2 mph - N/A   Clear
3:35 PM 46.4 °F 42.9 °F 19.4 °F 34% 30.38 in 10.0 mi WNW 6.9 mph - N/A   Clear
3:55 PM 46.4 °F 44.3 °F 19.4 °F 34% 30.38 in 10.0 mi WNW 4.6 mph - N/A   Clear
4:15 PM 44.6 °F 42.2 °F 21.2 °F 39% 30.39 in 10.0 mi WNW 4.6 mph - N/A   Scattered Clouds
4:35 PM 41.0 °F 39.0 °F 21.2 °F 45% 30.38 in 10.0 mi WNW 3.5 mph - N/A   Clear
4:55 PM 37.4 °F 34.9 °F 21.2 °F 52% 30.39 in 10.0 mi NW 3.5 mph - N/A   Clear
5:15 PM 32.0 °F 28.7 °F 21.2 °F 64% 30.39 in 10.0 mi WNW 3.5 mph - N/A   Clear
5:35 PM 30.2 °F - 21.2 °F 69% 30.39 in 10.0 mi Calm Calm - N/A   Clear
5:55 PM 30.2 °F - 21.2 °F 69% 30.39 in 10.0 mi Calm Calm - N/A   Clear
6:35 PM 26.6 °F - 19.4 °F 74% 30.38 in 10.0 mi Calm Calm - N/A   Scattered Clouds
6:55 PM 24.8 °F - 17.6 °F 74% 30.38 in 10.0 mi Calm Calm - N/A   Clear
7:15 PM 24.8 °F - 17.6 °F 74% 30.37 in 10.0 mi Calm Calm - N/A   Clear
7:35 PM 24.8 °F - 19.4 °F 80% 30.37 in 10.0 mi Calm Calm - N/A   Clear
7:55 PM 26.6 °F - 19.4 °F 74% 30.37 in 10.0 mi Calm Calm - N/A   Clear
8:15 PM 24.8 °F - 19.4 °F 80% 30.36 in 10.0 mi Calm Calm - N/A   Clear
8:35 PM 21.2 °F - 17.6 °F 86% 30.36 in 10.0 mi Calm Calm - N/A   Clear
8:55 PM 21.2 °F - 17.6 °F 86% 30.36 in 10.0 mi Calm Calm - N/A   Clear
9:15 PM 23.0 °F - 17.6 °F 80% 30.35 in 10.0 mi Calm Calm - N/A   Clear
9:35 PM 21.2 °F - 17.6 °F 86% 30.35 in 10.0 mi Calm Calm - N/A   Clear
9:55 PM 21.2 °F - 17.6 °F 86% 30.34 in 10.0 mi Calm Calm - N/A   Clear
10:15 PM 19.4 °F - 15.8 °F 86% 30.34 in 10.0 mi Calm Calm - N/A   Clear
10:35 PM 21.2 °F - 17.6 °F 86% 30.33 in 10.0 mi Calm Calm - N/A   Clear
10:55 PM 19.4 °F - 15.8 °F 86% 30.32 in 10.0 mi Calm Calm - N/A   Clear
11:15 PM 19.4 °F - 15.8 °F 86% 30.31 in 10.0 mi Calm Calm - N/A   Clear
11:35 PM 21.2 °F - 15.8 °F 80% 30.31 in 10.0 mi Calm Calm - N/A   Clear
11:55 PM 17.6 °F - 12.2 °F 79% 30.29 in 10.0 mi Calm Calm - N/A   Clear